owner,sensor,date,latitude,longitude,vertical_datum,sea_water_practical_salinity,qcFlag 
LUMCON,ioos:station:LUMCON:102:1,2016-03-01T00:00:00Z,29.1870,-90.6093,1.95,14.31,1111122 
LUMCON,ioos:station:LUMCON:102:1,2016-03-01T00:15:00Z,29.1870,-90.6093,1.95,14.31,1111122 
LUMCON,ioos:station:LUMCON:102:1,2016-03-01T00:30:00Z,29.1870,-90.6093,1.94,14.31,1111122 
LUMCON,ioos:station:LUMCON:102:1,2016-03-01T00:45:00Z,29.1870,-90.6093,1.93,14.32,1111122 
LUMCON,ioos:station:LUMCON:102:1,2016-03-01T01:00:00Z,29.1870,-90.6093,1.92,14.32,1111122 
LUMCON,ioos:station:LUMCON:102:1,2016-03-01T01:15:00Z,29.1870,-90.6093,1.91,14.32,1111122 
LUMCON,ioos:station:LUMCON:102:1,2016-03-01T01:30:00Z,29.1870,-90.6093,1.9,14.32,1111122 
LUMCON,ioos:station:LUMCON:102:1,2016-03-01T01:45:00Z,29.1870,-90.6093,1.89,14.32,1111122 
LUMCON,ioos:station:LUMCON:102:1,2016-03-01T02:00:00Z,29.1870,-90.6093,1.88,14.32,1111122 
LUMCON,ioos:station:LUMCON:102:1,2016-03-01T02:15:00Z,29.1870,-90.6093,1.87,14.32,1111122 
LUMCON,ioos:station:LUMCON:102:1,2016-03-01T02:30:00Z,29.1870,-90.6093,1.86,14.33,1111122 
LUMCON,ioos:station:LUMCON:102:1,2016-03-01T02:45:00Z,29.1870,-90.6093,1.85,14.32,1111122 
LUMCON,ioos:station:LUMCON:102:1,2016-03-01T03:00:00Z,29.1870,-90.6093,1.85,14.32,1111122 
LUMCON,ioos:station:LUMCON:102:1,2016-03-01T03:15:00Z,29.1870,-90.6093,1.84,14.31,1111122 
LUMCON,ioos:station:LUMCON:102:1,2016-03-01T03:30:00Z,29.1870,-90.6093,1.82,14.31,1111122 
LUMCON,ioos:station:LUMCON:102:1,2016-03-01T03:45:00Z,29.1870,-90.6093,1.82,14.31,1111122 
LUMCON,ioos:station:LUMCON:102:1,2016-03-01T04:00:00Z,29.1870,-90.6093,1.81,14.3,1111122 
LUMCON,ioos:station:LUMCON:102:1,2016-03-01T04:15:00Z,29.1870,-90.6093,1.81,14.3,1111122 
LUMCON,ioos:station:LUMCON:102:1,2016-03-01T04:30:00Z,29.1870,-90.6093,1.81,14.29,1111122 
LUMCON,ioos:station:LUMCON:102:1,2016-03-01T04:45:00Z,29.1870,-90.6093,1.8,14.27,1111122 
LUMCON,ioos:station:LUMCON:102:1,2016-03-01T05:00:00Z,29.1870,-90.6093,1.8,14.31,1111122 
LUMCON,ioos:station:LUMCON:102:1,2016-03-01T05:15:00Z,29.1870,-90.6093,1.8,14.3,1111122 
LUMCON,ioos:station:LUMCON:102:1,2016-03-01T05:30:00Z,29.1870,-90.6093,1.8,14.29,1111122 
LUMCON,ioos:station:LUMCON:102:1,2016-03-01T05:45:00Z,29.1870,-90.6093,1.79,14.32,1111122 
LUMCON,ioos:station:LUMCON:102:1,2016-03-01T06:00:00Z,29.1870,-90.6093,1.79,14.29,1111122 
LUMCON,ioos:station:LUMCON:102:1,2016-03-01T06:15:00Z,29.1870,-90.6093,1.8,14.28,1111122 
LUMCON,ioos:station:LUMCON:102:1,2016-03-01T06:30:00Z,29.1870,-90.6093,1.8,14.31,1111122 
LUMCON,ioos:station:LUMCON:102:1,2016-03-01T06:45:00Z,29.1870,-90.6093,1.8,14.27,1111122 
LUMCON,ioos:station:LUMCON:102:1,2016-03-01T07:00:00Z,29.1870,-90.6093,1.79,14.28,1111122 
LUMCON,ioos:station:LUMCON:102:1,2016-03-01T07:15:00Z,29.1870,-90.6093,1.8,14.29,1111122 
LUMCON,ioos:station:LUMCON:102:1,2016-03-01T07:30:00Z,29.1870,-90.6093,1.81,14.26,1111122 
LUMCON,ioos:station:LUMCON:102:1,2016-03-01T07:45:00Z,29.1870,-90.6093,1.82,14.27,1111122 
LUMCON,ioos:station:LUMCON:102:1,2016-03-01T08:00:00Z,29.1870,-90.6093,1.81,14.27,1111122 
LUMCON,ioos:station:LUMCON:102:1,2016-03-01T08:15:00Z,29.1870,-90.6093,1.83,14.26,1111122 
LUMCON,ioos:station:LUMCON:102:1,2016-03-01T08:30:00Z,29.1870,-90.6093,1.83,14.25,1111122 
LUMCON,ioos:station:LUMCON:102:1,2016-03-01T08:45:00Z,29.1870,-90.6093,1.83,14.26,1111122 
LUMCON,ioos:station:LUMCON:102:1,2016-03-01T09:00:00Z,29.1870,-90.6093,1.85,14.27,1111122 
LUMCON,ioos:station:LUMCON:102:1,2016-03-01T09:15:00Z,29.1870,-90.6093,1.85,14.25,1111122 
LUMCON,ioos:station:LUMCON:102:1,2016-03-01T09:30:00Z,29.1870,-90.6093,1.86,14.23,1111122 
LUMCON,ioos:station:LUMCON:102:1,2016-03-01T09:45:00Z,29.1870,-90.6093,1.87,14.22,1111122 
LUMCON,ioos:station:LUMCON:102:1,2016-03-01T10:00:00Z,29.1870,-90.6093,1.89,14.22,1111122 
LUMCON,ioos:station:LUMCON:102:1,2016-03-01T10:15:00Z,29.1870,-90.6093,1.89,14.22,1111122 
LUMCON,ioos:station:LUMCON:102:1,2016-03-01T10:30:00Z,29.1870,-90.6093,1.9,14.23,1111122 
LUMCON,ioos:station:LUMCON:102:1,2016-03-01T10:45:00Z,29.1870,-90.6093,1.91,14.18,1111122 
LUMCON,ioos:station:LUMCON:102:1,2016-03-01T11:00:00Z,29.1870,-90.6093,1.92,14.24,1111122 
LUMCON,ioos:station:LUMCON:102:1,2016-03-01T11:15:00Z,29.1870,-90.6093,1.93,14.18,1111122 
LUMCON,ioos:station:LUMCON:102:1,2016-03-01T11:30:00Z,29.1870,-90.6093,1.95,14.17,1111122 
LUMCON,ioos:station:LUMCON:102:1,2016-03-01T11:45:00Z,29.1870,-90.6093,1.96,14.15,1111122 
LUMCON,ioos:station:LUMCON:102:1,2016-03-01T12:00:00Z,29.1870,-90.6093,1.98,14.15,1111122 
LUMCON,ioos:station:LUMCON:102:1,2016-03-01T12:15:00Z,29.1870,-90.6093,1.99,14.14,1111122 
LUMCON,ioos:station:LUMCON:102:1,2016-03-01T12:30:00Z,29.1870,-90.6093,2.0,14.14,1111122 
LUMCON,ioos:station:LUMCON:102:1,2016-03-01T12:45:00Z,29.1870,-90.6093,2.0,14.14,1111122 
LUMCON,ioos:station:LUMCON:102:1,2016-03-01T13:00:00Z,29.1870,-90.6093,2.01,14.13,1111122 
LUMCON,ioos:station:LUMCON:102:1,2016-03-01T13:15:00Z,29.1870,-90.6093,2.02,14.12,1111122 
LUMCON,ioos:station:LUMCON:102:1,2016-03-01T13:30:00Z,29.1870,-90.6093,2.02,14.12,1111122 
LUMCON,ioos:station:LUMCON:102:1,2016-03-01T13:45:00Z,29.1870,-90.6093,2.04,14.12,1111122 
LUMCON,ioos:station:LUMCON:102:1,2016-03-01T14:00:00Z,29.1870,-90.6093,2.05,14.13,1111122 
LUMCON,ioos:station:LUMCON:102:1,2016-03-01T14:15:00Z,29.1870,-90.6093,2.06,14.11,1111122 
LUMCON,ioos:station:LUMCON:102:1,2016-03-01T14:30:00Z,29.1870,-90.6093,2.06,14.11,1111122 
LUMCON,ioos:station:LUMCON:102:1,2016-03-01T14:45:00Z,29.1870,-90.6093,2.07,14.11,1111122 
LUMCON,ioos:station:LUMCON:102:1,2016-03-01T15:00:00Z,29.1870,-90.6093,2.06,14.12,1111122 
LUMCON,ioos:station:LUMCON:102:1,2016-03-01T15:15:00Z,29.1870,-90.6093,2.07,14.12,1111122 
LUMCON,ioos:station:LUMCON:102:1,2016-03-01T15:30:00Z,29.1870,-90.6093,2.07,14.11,1111122 
LUMCON,ioos:station:LUMCON:102:1,2016-03-01T15:45:00Z,29.1870,-90.6093,2.09,14.12,1111122 
LUMCON,ioos:station:LUMCON:102:1,2016-03-01T16:00:00Z,29.1870,-90.6093,2.08,14.11,1111122 
LUMCON,ioos:station:LUMCON:102:1,2016-03-01T16:15:00Z,29.1870,-90.6093,2.1,14.12,1111122 
LUMCON,ioos:station:LUMCON:102:1,2016-03-01T16:30:00Z,29.1870,-90.6093,2.11,14.13,1111122 
LUMCON,ioos:station:LUMCON:102:1,2016-03-01T16:45:00Z,29.1870,-90.6093,2.11,14.14,1111122 
LUMCON,ioos:station:LUMCON:102:1,2016-03-01T17:00:00Z,29.1870,-90.6093,2.11,14.14,1111122 
LUMCON,ioos:station:LUMCON:102:1,2016-03-01T17:15:00Z,29.1870,-90.6093,2.11,14.1,1111122 
LUMCON,ioos:station:LUMCON:102:1,2016-03-01T17:30:00Z,29.1870,-90.6093,2.11,14.15,1111122 
LUMCON,ioos:station:LUMCON:102:1,2016-03-01T17:45:00Z,29.1870,-90.6093,2.13,14.17,1111122 
LUMCON,ioos:station:LUMCON:102:1,2016-03-01T18:00:00Z,29.1870,-90.6093,2.13,14.15,1111122 
LUMCON,ioos:station:LUMCON:102:1,2016-03-01T18:15:00Z,29.1870,-90.6093,2.14,14.19,1111122 
LUMCON,ioos:station:LUMCON:102:1,2016-03-01T18:30:00Z,29.1870,-90.6093,2.14,14.16,1111122 
LUMCON,ioos:station:LUMCON:102:1,2016-03-01T18:45:00Z,29.1870,-90.6093,2.15,14.19,1111122 
LUMCON,ioos:station:LUMCON:102:1,2016-03-01T19:00:00Z,29.1870,-90.6093,2.14,14.18,1111122 
LUMCON,ioos:station:LUMCON:102:1,2016-03-01T19:15:00Z,29.1870,-90.6093,2.15,14.19,1111122 
LUMCON,ioos:station:LUMCON:102:1,2016-03-01T19:30:00Z,29.1870,-90.6093,2.14,14.2,1111122 
LUMCON,ioos:station:LUMCON:102:1,2016-03-01T19:45:00Z,29.1870,-90.6093,2.13,14.22,1111122 
LUMCON,ioos:station:LUMCON:102:1,2016-03-01T20:00:00Z,29.1870,-90.6093,2.15,14.22,1111122 
LUMCON,ioos:station:LUMCON:102:1,2016-03-01T20:15:00Z,29.1870,-90.6093,2.14,14.21,1111122 
LUMCON,ioos:station:LUMCON:102:1,2016-03-01T20:30:00Z,29.1870,-90.6093,2.15,14.25,1111122 
LUMCON,ioos:station:LUMCON:102:1,2016-03-01T20:45:00Z,29.1870,-90.6093,2.14,14.25,1111122 
LUMCON,ioos:station:LUMCON:102:1,2016-03-01T21:00:00Z,29.1870,-90.6093,2.13,14.26,1111122 
LUMCON,ioos:station:LUMCON:102:1,2016-03-01T21:15:00Z,29.1870,-90.6093,2.15,14.26,1111122 
LUMCON,ioos:station:LUMCON:102:1,2016-03-01T21:30:00Z,29.1870,-90.6093,2.13,14.26,1111122 
LUMCON,ioos:station:LUMCON:102:1,2016-03-01T21:45:00Z,29.1870,-90.6093,2.12,14.27,1111122 
LUMCON,ioos:station:LUMCON:102:1,2016-03-01T22:00:00Z,29.1870,-90.6093,2.12,14.28,1111122 
LUMCON,ioos:station:LUMCON:102:1,2016-03-01T22:15:00Z,29.1870,-90.6093,2.11,14.29,1111122 
LUMCON,ioos:station:LUMCON:102:1,2016-03-01T22:30:00Z,29.1870,-90.6093,2.11,14.3,1111122 
LUMCON,ioos:station:LUMCON:102:1,2016-03-01T22:45:00Z,29.1870,-90.6093,2.1,14.3,1111122 
LUMCON,ioos:station:LUMCON:102:1,2016-03-01T23:00:00Z,29.1870,-90.6093,2.1,14.32,1111122 
LUMCON,ioos:station:LUMCON:102:1,2016-03-01T23:15:00Z,29.1870,-90.6093,2.11,14.31,1111122 
LUMCON,ioos:station:LUMCON:102:1,2016-03-01T23:30:00Z,29.1870,-90.6093,2.09,14.33,1111122 
LUMCON,ioos:station:LUMCON:102:1,2016-03-01T23:45:00Z,29.1870,-90.6093,2.08,14.35,1111122 
LUMCON,ioos:station:LUMCON:102:1,2016-03-02T00:00:00Z,29.1870,-90.6093,2.08,14.35,1111122 
LUMCON,ioos:station:LUMCON:102:1,2016-03-02T00:15:00Z,29.1870,-90.6093,2.07,14.36,1111122 
LUMCON,ioos:station:LUMCON:102:1,2016-03-02T00:30:00Z,29.1870,-90.6093,2.05,14.37,1111122 
LUMCON,ioos:station:LUMCON:102:1,2016-03-02T00:45:00Z,29.1870,-90.6093,2.05,14.38,1111122 
LUMCON,ioos:station:LUMCON:102:1,2016-03-02T01:00:00Z,29.1870,-90.6093,2.05,14.39,1111122 
LUMCON,ioos:station:LUMCON:102:1,2016-03-02T01:15:00Z,29.1870,-90.6093,2.01,14.4,1111122 
LUMCON,ioos:station:LUMCON:102:1,2016-03-02T01:30:00Z,29.1870,-90.6093,2.0,14.41,1111122 
LUMCON,ioos:station:LUMCON:102:1,2016-03-02T01:45:00Z,29.1870,-90.6093,1.98,14.42,1111122 
LUMCON,ioos:station:LUMCON:102:1,2016-03-02T02:00:00Z,29.1870,-90.6093,1.98,14.45,1111122 
LUMCON,ioos:station:LUMCON:102:1,2016-03-02T02:15:00Z,29.1870,-90.6093,1.95,14.43,1111122 
LUMCON,ioos:station:LUMCON:102:1,2016-03-02T02:30:00Z,29.1870,-90.6093,1.94,14.5,1111122 
LUMCON,ioos:station:LUMCON:102:1,2016-03-02T02:45:00Z,29.1870,-90.6093,1.93,14.46,1111122 
LUMCON,ioos:station:LUMCON:102:1,2016-03-02T03:00:00Z,29.1870,-90.6093,1.91,14.47,1111122 
LUMCON,ioos:station:LUMCON:102:1,2016-03-02T03:15:00Z,29.1870,-90.6093,1.9,14.47,1111122 
LUMCON,ioos:station:LUMCON:102:1,2016-03-02T03:30:00Z,29.1870,-90.6093,1.89,14.47,1111122 
LUMCON,ioos:station:LUMCON:102:1,2016-03-02T03:45:00Z,29.1870,-90.6093,1.89,14.46,1111122 
LUMCON,ioos:station:LUMCON:102:1,2016-03-02T04:00:00Z,29.1870,-90.6093,1.88,14.48,1111122 
LUMCON,ioos:station:LUMCON:102:1,2016-03-02T04:15:00Z,29.1870,-90.6093,1.89,14.49,1111122 
LUMCON,ioos:station:LUMCON:102:1,2016-03-02T04:30:00Z,29.1870,-90.6093,1.86,14.49,1111122 
LUMCON,ioos:station:LUMCON:102:1,2016-03-02T04:45:00Z,29.1870,-90.6093,1.86,14.48,1111122 
LUMCON,ioos:station:LUMCON:102:1,2016-03-02T05:00:00Z,29.1870,-90.6093,1.84,14.51,1111122 
LUMCON,ioos:station:LUMCON:102:1,2016-03-02T05:15:00Z,29.1870,-90.6093,1.83,14.51,1111122 
LUMCON,ioos:station:LUMCON:102:1,2016-03-02T05:30:00Z,29.1870,-90.6093,1.81,14.51,1111122 
LUMCON,ioos:station:LUMCON:102:1,2016-03-02T05:45:00Z,29.1870,-90.6093,1.81,14.52,1111122 
LUMCON,ioos:station:LUMCON:102:1,2016-03-02T06:00:00Z,29.1870,-90.6093,1.79,14.52,1111122 
LUMCON,ioos:station:LUMCON:102:1,2016-03-02T06:15:00Z,29.1870,-90.6093,1.78,14.51,1111122 
LUMCON,ioos:station:LUMCON:102:1,2016-03-02T06:30:00Z,29.1870,-90.6093,1.76,14.52,1111122 
LUMCON,ioos:station:LUMCON:102:1,2016-03-02T06:45:00Z,29.1870,-90.6093,1.76,14.5,1111122 
LUMCON,ioos:station:LUMCON:102:1,2016-03-02T07:00:00Z,29.1870,-90.6093,1.73,14.52,1111122 
LUMCON,ioos:station:LUMCON:102:1,2016-03-02T07:15:00Z,29.1870,-90.6093,1.73,14.51,1111122 
LUMCON,ioos:station:LUMCON:102:1,2016-03-02T07:30:00Z,29.1870,-90.6093,1.73,14.5,1111122 
LUMCON,ioos:station:LUMCON:102:1,2016-03-02T07:45:00Z,29.1870,-90.6093,1.72,14.48,1111122 
LUMCON,ioos:station:LUMCON:102:1,2016-03-02T08:00:00Z,29.1870,-90.6093,1.71,14.46,1111122 
LUMCON,ioos:station:LUMCON:102:1,2016-03-02T08:15:00Z,29.1870,-90.6093,1.7,14.42,1111122 
LUMCON,ioos:station:LUMCON:102:1,2016-03-02T08:30:00Z,29.1870,-90.6093,1.68,14.4,1111122 
LUMCON,ioos:station:LUMCON:102:1,2016-03-02T08:45:00Z,29.1870,-90.6093,1.69,14.4,1111122 
LUMCON,ioos:station:LUMCON:102:1,2016-03-02T09:00:00Z,29.1870,-90.6093,1.69,14.37,1111122 
LUMCON,ioos:station:LUMCON:102:1,2016-03-02T09:15:00Z,29.1870,-90.6093,1.69,14.33,1111122 
LUMCON,ioos:station:LUMCON:102:1,2016-03-02T09:30:00Z,29.1870,-90.6093,1.68,14.3,1111122 
LUMCON,ioos:station:LUMCON:102:1,2016-03-02T09:45:00Z,29.1870,-90.6093,1.68,14.28,1111122 
LUMCON,ioos:station:LUMCON:102:1,2016-03-02T10:00:00Z,29.1870,-90.6093,1.67,14.26,1111122 
LUMCON,ioos:station:LUMCON:102:1,2016-03-02T10:15:00Z,29.1870,-90.6093,1.66,14.23,1111122 
LUMCON,ioos:station:LUMCON:102:1,2016-03-02T10:30:00Z,29.1870,-90.6093,1.65,14.2,1111122 
LUMCON,ioos:station:LUMCON:102:1,2016-03-02T10:45:00Z,29.1870,-90.6093,1.65,14.19,1111122 
LUMCON,ioos:station:LUMCON:102:1,2016-03-02T11:00:00Z,29.1870,-90.6093,1.65,14.16,1111122 
LUMCON,ioos:station:LUMCON:102:1,2016-03-02T11:15:00Z,29.1870,-90.6093,1.65,14.15,1111122 
LUMCON,ioos:station:LUMCON:102:1,2016-03-02T11:30:00Z,29.1870,-90.6093,1.64,14.11,1111122 
LUMCON,ioos:station:LUMCON:102:1,2016-03-02T11:45:00Z,29.1870,-90.6093,1.65,14.11,1111122 
LUMCON,ioos:station:LUMCON:102:1,2016-03-02T12:00:00Z,29.1870,-90.6093,1.68,14.1,1111122 
LUMCON,ioos:station:LUMCON:102:1,2016-03-02T12:15:00Z,29.1870,-90.6093,1.71,14.07,1111122 
LUMCON,ioos:station:LUMCON:102:1,2016-03-02T12:30:00Z,29.1870,-90.6093,1.75,14.03,1111122 
LUMCON,ioos:station:LUMCON:102:1,2016-03-02T12:45:00Z,29.1870,-90.6093,1.77,14.02,1111122 
LUMCON,ioos:station:LUMCON:102:1,2016-03-02T13:00:00Z,29.1870,-90.6093,1.79,14.0,1111122 
LUMCON,ioos:station:LUMCON:102:1,2016-03-02T13:15:00Z,29.1870,-90.6093,1.82,13.97,1111122 
LUMCON,ioos:station:LUMCON:102:1,2016-03-02T13:30:00Z,29.1870,-90.6093,1.84,13.96,1111122 
LUMCON,ioos:station:LUMCON:102:1,2016-03-02T13:45:00Z,29.1870,-90.6093,1.86,13.95,1111122 
LUMCON,ioos:station:LUMCON:102:1,2016-03-02T14:00:00Z,29.1870,-90.6093,1.87,13.93,1111122 
LUMCON,ioos:station:LUMCON:102:1,2016-03-02T14:15:00Z,29.1870,-90.6093,1.89,13.93,1111122 
LUMCON,ioos:station:LUMCON:102:1,2016-03-02T14:30:00Z,29.1870,-90.6093,1.89,13.91,1111122 
LUMCON,ioos:station:LUMCON:102:1,2016-03-02T14:45:00Z,29.1870,-90.6093,1.9,13.89,1111122 
LUMCON,ioos:station:LUMCON:102:1,2016-03-02T15:00:00Z,29.1870,-90.6093,1.9,13.89,1111122 
LUMCON,ioos:station:LUMCON:102:1,2016-03-02T15:15:00Z,29.1870,-90.6093,1.89,13.88,1111122 
LUMCON,ioos:station:LUMCON:102:1,2016-03-02T15:30:00Z,29.1870,-90.6093,1.91,13.88,1111122 
LUMCON,ioos:station:LUMCON:102:1,2016-03-02T15:45:00Z,29.1870,-90.6093,1.91,13.87,1111122 
LUMCON,ioos:station:LUMCON:102:1,2016-03-02T16:00:00Z,29.1870,-90.6093,1.92,13.87,1111122 
LUMCON,ioos:station:LUMCON:102:1,2016-03-02T16:15:00Z,29.1870,-90.6093,1.94,13.86,1111122 
LUMCON,ioos:station:LUMCON:102:1,2016-03-02T16:30:00Z,29.1870,-90.6093,1.94,13.84,1111122 
LUMCON,ioos:station:LUMCON:102:1,2016-03-02T16:45:00Z,29.1870,-90.6093,1.97,13.84,1111122 
LUMCON,ioos:station:LUMCON:102:1,2016-03-02T17:00:00Z,29.1870,-90.6093,1.99,13.83,1111122 
LUMCON,ioos:station:LUMCON:102:1,2016-03-02T17:15:00Z,29.1870,-90.6093,2.0,13.83,1111122 
LUMCON,ioos:station:LUMCON:102:1,2016-03-02T17:30:00Z,29.1870,-90.6093,2.02,13.83,1111122 
LUMCON,ioos:station:LUMCON:102:1,2016-03-02T17:45:00Z,29.1870,-90.6093,2.04,13.81,1111122 
LUMCON,ioos:station:LUMCON:102:1,2016-03-02T18:00:00Z,29.1870,-90.6093,2.05,13.82,1111122 
LUMCON,ioos:station:LUMCON:102:1,2016-03-02T18:15:00Z,29.1870,-90.6093,2.06,13.81,1111122 
LUMCON,ioos:station:LUMCON:102:1,2016-03-02T18:30:00Z,29.1870,-90.6093,2.07,13.8,1111122 
LUMCON,ioos:station:LUMCON:102:1,2016-03-02T18:45:00Z,29.1870,-90.6093,2.08,13.81,1111122 
LUMCON,ioos:station:LUMCON:102:1,2016-03-02T19:00:00Z,29.1870,-90.6093,2.09,13.79,1111122 
LUMCON,ioos:station:LUMCON:102:1,2016-03-02T19:15:00Z,29.1870,-90.6093,2.09,13.79,1111122 
LUMCON,ioos:station:LUMCON:102:1,2016-03-02T19:30:00Z,29.1870,-90.6093,2.09,13.79,1111122 
LUMCON,ioos:station:LUMCON:102:1,2016-03-02T19:45:00Z,29.1870,-90.6093,2.1,13.79,1111122 
LUMCON,ioos:station:LUMCON:102:1,2016-03-02T20:00:00Z,29.1870,-90.6093,2.1,13.79,1111122 
LUMCON,ioos:station:LUMCON:102:1,2016-03-02T20:15:00Z,29.1870,-90.6093,2.11,13.79,1111122 
LUMCON,ioos:station:LUMCON:102:1,2016-03-02T20:30:00Z,29.1870,-90.6093,2.11,13.78,1111122 
LUMCON,ioos:station:LUMCON:102:1,2016-03-02T20:45:00Z,29.1870,-90.6093,2.12,13.77,1111122 
LUMCON,ioos:station:LUMCON:102:1,2016-03-02T21:00:00Z,29.1870,-90.6093,2.12,13.78,1111122 
LUMCON,ioos:station:LUMCON:102:1,2016-03-02T21:15:00Z,29.1870,-90.6093,2.12,13.77,1111122 
LUMCON,ioos:station:LUMCON:102:1,2016-03-02T21:30:00Z,29.1870,-90.6093,2.12,13.78,1111122 
LUMCON,ioos:station:LUMCON:102:1,2016-03-02T21:45:00Z,29.1870,-90.6093,2.13,13.78,1111122 
LUMCON,ioos:station:LUMCON:102:1,2016-03-02T22:00:00Z,29.1870,-90.6093,2.13,13.78,1111122 
LUMCON,ioos:station:LUMCON:102:1,2016-03-02T22:15:00Z,29.1870,-90.6093,2.13,13.79,1111122 
LUMCON,ioos:station:LUMCON:102:1,2016-03-02T22:30:00Z,29.1870,-90.6093,2.13,13.78,1111122 
LUMCON,ioos:station:LUMCON:102:1,2016-03-02T22:45:00Z,29.1870,-90.6093,2.13,13.78,1111122 
LUMCON,ioos:station:LUMCON:102:1,2016-03-02T23:00:00Z,29.1870,-90.6093,2.12,13.79,1111122 
LUMCON,ioos:station:LUMCON:102:1,2016-03-02T23:15:00Z,29.1870,-90.6093,2.12,13.78,1111122 
LUMCON,ioos:station:LUMCON:102:1,2016-03-02T23:30:00Z,29.1870,-90.6093,2.11,13.79,1111122 
LUMCON,ioos:station:LUMCON:102:1,2016-03-02T23:45:00Z,29.1870,-90.6093,2.09,13.79,1111122 
LUMCON,ioos:station:LUMCON:102:1,2016-03-03T00:00:00Z,29.1870,-90.6093,2.1,13.79,1111122 
LUMCON,ioos:station:LUMCON:102:1,2016-03-03T00:15:00Z,29.1870,-90.6093,2.09,13.8,1111122 
LUMCON,ioos:station:LUMCON:102:1,2016-03-03T00:30:00Z,29.1870,-90.6093,2.09,13.81,1111122 
LUMCON,ioos:station:LUMCON:102:1,2016-03-03T00:45:00Z,29.1870,-90.6093,2.09,13.82,1111122 
LUMCON,ioos:station:LUMCON:102:1,2016-03-03T01:00:00Z,29.1870,-90.6093,2.09,13.82,1111122 
LUMCON,ioos:station:LUMCON:102:1,2016-03-03T01:15:00Z,29.1870,-90.6093,2.08,13.81,1111122 
LUMCON,ioos:station:LUMCON:102:1,2016-03-03T01:30:00Z,29.1870,-90.6093,2.09,13.82,1111122 
LUMCON,ioos:station:LUMCON:102:1,2016-03-03T01:45:00Z,29.1870,-90.6093,2.09,13.84,1111122 
LUMCON,ioos:station:LUMCON:102:1,2016-03-03T02:00:00Z,29.1870,-90.6093,2.08,13.85,1111122 
LUMCON,ioos:station:LUMCON:102:1,2016-03-03T02:15:00Z,29.1870,-90.6093,2.07,13.85,1111122 
LUMCON,ioos:station:LUMCON:102:1,2016-03-03T02:30:00Z,29.1870,-90.6093,2.07,13.85,1111122 
LUMCON,ioos:station:LUMCON:102:1,2016-03-03T02:45:00Z,29.1870,-90.6093,2.06,13.86,1111122 
LUMCON,ioos:station:LUMCON:102:1,2016-03-03T03:00:00Z,29.1870,-90.6093,2.05,13.87,1111122 
LUMCON,ioos:station:LUMCON:102:1,2016-03-03T03:15:00Z,29.1870,-90.6093,2.04,13.86,1111122 
LUMCON,ioos:station:LUMCON:102:1,2016-03-03T03:30:00Z,29.1870,-90.6093,2.03,13.88,1111122 
LUMCON,ioos:station:LUMCON:102:1,2016-03-03T03:45:00Z,29.1870,-90.6093,2.01,13.87,1111122 
LUMCON,ioos:station:LUMCON:102:1,2016-03-03T04:00:00Z,29.1870,-90.6093,2.0,13.88,1111122 
LUMCON,ioos:station:LUMCON:102:1,2016-03-03T04:15:00Z,29.1870,-90.6093,1.99,13.88,1111122 
LUMCON,ioos:station:LUMCON:102:1,2016-03-03T04:30:00Z,29.1870,-90.6093,1.99,13.9,1111122 
LUMCON,ioos:station:LUMCON:102:1,2016-03-03T04:45:00Z,29.1870,-90.6093,1.97,13.89,1111122 
LUMCON,ioos:station:LUMCON:102:1,2016-03-03T05:00:00Z,29.1870,-90.6093,1.96,13.89,1111122 
LUMCON,ioos:station:LUMCON:102:1,2016-03-03T05:15:00Z,29.1870,-90.6093,1.95,13.89,1111122 
LUMCON,ioos:station:LUMCON:102:1,2016-03-03T05:30:00Z,29.1870,-90.6093,1.94,13.9,1111122 
LUMCON,ioos:station:LUMCON:102:1,2016-03-03T05:45:00Z,29.1870,-90.6093,1.93,13.91,1111122 
LUMCON,ioos:station:LUMCON:102:1,2016-03-03T06:00:00Z,29.1870,-90.6093,1.92,13.91,1111122 
LUMCON,ioos:station:LUMCON:102:1,2016-03-03T06:15:00Z,29.1870,-90.6093,1.91,13.91,1111122 
LUMCON,ioos:station:LUMCON:102:1,2016-03-03T06:30:00Z,29.1870,-90.6093,1.9,13.91,1111122 
LUMCON,ioos:station:LUMCON:102:1,2016-03-03T06:45:00Z,29.1870,-90.6093,1.9,13.89,1111122 
LUMCON,ioos:station:LUMCON:102:1,2016-03-03T07:00:00Z,29.1870,-90.6093,1.9,13.9,1111122 
LUMCON,ioos:station:LUMCON:102:1,2016-03-03T07:15:00Z,29.1870,-90.6093,1.88,13.89,1111122 
LUMCON,ioos:station:LUMCON:102:1,2016-03-03T07:30:00Z,29.1870,-90.6093,1.88,13.89,1111122 
LUMCON,ioos:station:LUMCON:102:1,2016-03-03T07:45:00Z,29.1870,-90.6093,1.88,13.89,1111122 
LUMCON,ioos:station:LUMCON:102:1,2016-03-03T08:00:00Z,29.1870,-90.6093,1.87,13.89,1111122 
LUMCON,ioos:station:LUMCON:102:1,2016-03-03T08:15:00Z,29.1870,-90.6093,1.87,13.88,1111122 
LUMCON,ioos:station:LUMCON:102:1,2016-03-03T08:30:00Z,29.1870,-90.6093,1.87,13.88,1111122 
LUMCON,ioos:station:LUMCON:102:1,2016-03-03T08:45:00Z,29.1870,-90.6093,1.84,13.86,1111122 
LUMCON,ioos:station:LUMCON:102:1,2016-03-03T09:00:00Z,29.1870,-90.6093,1.84,13.87,1111122 
LUMCON,ioos:station:LUMCON:102:1,2016-03-03T09:15:00Z,29.1870,-90.6093,1.83,13.86,1111122 
LUMCON,ioos:station:LUMCON:102:1,2016-03-03T09:30:00Z,29.1870,-90.6093,1.83,13.86,1111122 
LUMCON,ioos:station:LUMCON:102:1,2016-03-03T09:45:00Z,29.1870,-90.6093,1.82,13.87,1111122 
LUMCON,ioos:station:LUMCON:102:1,2016-03-03T10:00:00Z,29.1870,-90.6093,1.82,13.85,1111122 
LUMCON,ioos:station:LUMCON:102:1,2016-03-03T10:15:00Z,29.1870,-90.6093,1.83,13.82,1111122 
LUMCON,ioos:station:LUMCON:102:1,2016-03-03T10:30:00Z,29.1870,-90.6093,1.84,13.82,1111122 
LUMCON,ioos:station:LUMCON:102:1,2016-03-03T10:45:00Z,29.1870,-90.6093,1.86,13.83,1111122 
LUMCON,ioos:station:LUMCON:102:1,2016-03-03T11:00:00Z,29.1870,-90.6093,1.88,13.82,1111122 
LUMCON,ioos:station:LUMCON:102:1,2016-03-03T11:15:00Z,29.1870,-90.6093,1.88,13.82,1111122 
LUMCON,ioos:station:LUMCON:102:1,2016-03-03T11:30:00Z,29.1870,-90.6093,1.91,13.82,1111122 
LUMCON,ioos:station:LUMCON:102:1,2016-03-03T11:45:00Z,29.1870,-90.6093,1.93,13.81,1111122 
LUMCON,ioos:station:LUMCON:102:1,2016-03-03T12:00:00Z,29.1870,-90.6093,1.93,13.81,1111122 
LUMCON,ioos:station:LUMCON:102:1,2016-03-03T12:15:00Z,29.1870,-90.6093,1.93,13.8,1111122 
LUMCON,ioos:station:LUMCON:102:1,2016-03-03T12:30:00Z,29.1870,-90.6093,1.93,13.78,1111122 
LUMCON,ioos:station:LUMCON:102:1,2016-03-03T12:45:00Z,29.1870,-90.6093,1.93,13.79,1111122 
LUMCON,ioos:station:LUMCON:102:1,2016-03-03T13:00:00Z,29.1870,-90.6093,1.95,13.78,1111122 
LUMCON,ioos:station:LUMCON:102:1,2016-03-03T13:15:00Z,29.1870,-90.6093,1.95,13.77,1111122 
LUMCON,ioos:station:LUMCON:102:1,2016-03-03T13:30:00Z,29.1870,-90.6093,1.96,13.77,1111122 
LUMCON,ioos:station:LUMCON:102:1,2016-03-03T13:45:00Z,29.1870,-90.6093,1.98,13.76,1111122 
LUMCON,ioos:station:LUMCON:102:1,2016-03-03T14:00:00Z,29.1870,-90.6093,2.02,13.74,1111122 
LUMCON,ioos:station:LUMCON:102:1,2016-03-03T14:15:00Z,29.1870,-90.6093,2.01,13.74,1111122 
LUMCON,ioos:station:LUMCON:102:1,2016-03-03T14:30:00Z,29.1870,-90.6093,2.04,13.73,1111122 
LUMCON,ioos:station:LUMCON:102:1,2016-03-03T14:45:00Z,29.1870,-90.6093,2.05,13.73,1111122 
LUMCON,ioos:station:LUMCON:102:1,2016-03-03T15:00:00Z,29.1870,-90.6093,2.06,13.72,1111122 
LUMCON,ioos:station:LUMCON:102:1,2016-03-03T15:15:00Z,29.1870,-90.6093,2.06,13.72,1111122 
LUMCON,ioos:station:LUMCON:102:1,2016-03-03T15:30:00Z,29.1870,-90.6093,2.07,13.71,1111122 
LUMCON,ioos:station:LUMCON:102:1,2016-03-03T15:45:00Z,29.1870,-90.6093,2.07,13.71,1111122 
LUMCON,ioos:station:LUMCON:102:1,2016-03-03T16:00:00Z,29.1870,-90.6093,2.07,13.7,1111122 
LUMCON,ioos:station:LUMCON:102:1,2016-03-03T16:15:00Z,29.1870,-90.6093,2.07,13.7,1111122 
LUMCON,ioos:station:LUMCON:102:1,2016-03-03T16:30:00Z,29.1870,-90.6093,2.07,13.7,1111122 
LUMCON,ioos:station:LUMCON:102:1,2016-03-03T16:45:00Z,29.1870,-90.6093,2.09,13.7,1111122 
LUMCON,ioos:station:LUMCON:102:1,2016-03-03T17:00:00Z,29.1870,-90.6093,2.1,13.68,1111122 
LUMCON,ioos:station:LUMCON:102:1,2016-03-03T17:15:00Z,29.1870,-90.6093,2.09,13.7,1111122 
LUMCON,ioos:station:LUMCON:102:1,2016-03-03T17:30:00Z,29.1870,-90.6093,2.09,13.7,1111122 